| time (UTC) | temp C | wind direction | speed KPH | gust KPH | rain 1hr cm | rain 24hr cm | rain mn cm | humidity % | barometer mb |
| 20260510163003 | 18 | 74 | 8.0 | 0.0 | 0.00 | 0.00 | 0.00 | 50 | 1018.3 |
| 20260510161559 | 18 | 36 | 8.0 | 0.0 | 0.00 | 0.00 | 0.00 | 51 | 1017.7 |
| 20260510160111 | 17 | 11 | 9.7 | 0.0 | 0.00 | 0.00 | 0.00 | 49 | 1017.8 |
| 20260510153103 | 17 | 98 | 4.8 | 0.0 | 0.00 | 0.00 | 0.00 | 58 | 1017.5 |
| 20260510151555 | 17 | 21 | 6.4 | 0.0 | 0.00 | 0.00 | 0.00 | 58 | 1017.6 |
| 20260510150113 | 17 | 65 | 9.7 | 0.0 | 0.00 | 0.00 | 0.00 | 59 | 1017.8 |
| 20260510143050 | 17 | 118 | 6.4 | 0.0 | 0.00 | 0.00 | 0.00 | 62 | 1017.4 |
| 20260510141550 | 17 | 34 | 6.4 | 0.0 | 0.00 | 0.00 | 0.00 | 63 | 1017.0 |
| 20260510140047 | 16 | 5 | 8.0 | 0.0 | 0.00 | 0.00 | 0.00 | 66 | 1016.9 |
| 20260510133042 | 16 | 360 | 8.0 | 0.0 | 0.00 | 0.00 | 0.00 | 71 | 1016.5 |
| 20260510131541 | 16 | 32 | 6.4 | 0.0 | 0.00 | 0.00 | 0.00 | 74 | 1016.3 |
| 20260510130039 | 15 | 39 | 6.4 | 0.0 | 0.00 | 0.00 | 0.00 | 75 | 1015.9 |
| 20260510123037 | 15 | 98 | 4.8 | 0.0 | 0.00 | 0.00 | 0.00 | 78 | 1015.8 |
| 20260510121535 | 14 | 85 | 4.8 | 0.0 | 0.00 | 0.00 | 0.00 | 81 | 1015.4 |
| 20260510120035 | 13 | 96 | 3.2 | 0.0 | 0.00 | 0.00 | 0.00 | 81 | 1015.4 |
| 20260510113032 | 13 | 78 | 3.2 | 0.0 | 0.00 | 0.00 | 0.00 | 80 | 1014.8 |
| 20260510111530 | 13 | 346 | 3.2 | 0.0 | 0.00 | 0.00 | 0.00 | 81 | 1014.6 |
| 20260510110029 | 14 | 101 | 1.6 | 0.0 | 0.00 | 0.00 | 0.00 | 81 | 1014.3 |
| 20260510103027 | 15 | 86 | 3.2 | 0.0 | 0.00 | 0.00 | 0.00 | 77 | 1014.2 |
| 20260510101525 | 15 | 67 | 3.2 | 0.0 | 0.00 | 0.00 | 0.00 | 75 | 1014.0 |
| 20260510100022 | 15 | 63 | 1.6 | 0.0 | 0.00 | 0.00 | 0.00 | 71 | 1013.6 |
| 20260510093021 | 15 | 87 | 1.6 | 0.0 | 0.00 | 0.00 | 0.00 | 70 | 1013.3 |
| 20260510091526 | 15 | 360 | 0.0 | 0.0 | 0.00 | 0.00 | 0.00 | 70 | 1013.4 |
| 20260510090022 | 15 | 279 | 0.0 | 0.0 | 0.00 | 0.00 | 0.00 | 71 | 1013.2 |
| 20260510083020 | 15 | 279 | 0.0 | 0.0 | 0.00 | 0.00 | 0.00 | 70 | 1012.8 |
| 20260510081531 | 15 | 279 | 0.0 | 0.0 | 0.00 | 0.00 | 0.00 | 73 | 1012.9 |
| 20260510080019 | 14 | 280 | 0.0 | 0.0 | 0.00 | 0.00 | 0.00 | 70 | 1013.0 |
| 20260510073022 | 13 | 276 | 0.0 | 0.0 | 0.00 | 0.00 | 0.00 | 74 | 1012.7 |
| 20260510071516 | 13 | 278 | 1.6 | 0.0 | 0.00 | 0.00 | 0.00 | 73 | 1012.8 |
| 20260510070014 | 14 | 161 | 1.6 | 0.0 | 0.00 | 0.00 | 0.00 | 72 | 1012.6 |
| 20260510063011 | 15 | 236 | 1.6 | 0.0 | 0.00 | 0.00 | 0.00 | 68 | 1012.6 |
| 20260510061510 | 16 | 238 | 0.0 | 0.0 | 0.00 | 0.00 | 0.00 | 68 | 1012.5 |
| 20260510060007 | 16 | 237 | 3.2 | 0.0 | 0.00 | 0.00 | 0.00 | 65 | 1012.7 |
| 20260510053002 | 16 | 294 | 4.8 | 0.0 | 0.00 | 0.00 | 0.00 | 65 | 1012.7 |
| 20260510051559 | 16 | 221 | 0.0 | 0.0 | 0.00 | 0.00 | 0.00 | 64 | 1012.1 |
| 20260510050057 | 16 | 360 | 1.6 | 0.0 | 0.00 | 0.00 | 0.00 | 63 | 1012.1 |
| 20260510043110 | 16 | 210 | 1.6 | 0.0 | 0.00 | 0.00 | 0.00 | 62 | 1011.9 |
| 20260510041554 | 16 | 207 | 0.0 | 0.0 | 0.00 | 0.00 | 0.00 | 62 | 1011.5 |
| 20260510040104 | 17 | 192 | 0.0 | 0.0 | 0.00 | 0.00 | 0.00 | 61 | 1011.4 |
| 20260510033057 | 17 | 279 | 0.0 | 0.0 | 0.00 | 0.00 | 0.00 | 65 | 1011.5 |
| 20260510031603 | 17 | 281 | 0.0 | 0.0 | 0.00 | 0.00 | 0.00 | 61 | 1011.4 |
| 20260510030058 | 17 | 281 | 0.0 | 0.0 | 0.00 | 0.00 | 0.00 | 61 | 1011.4 |
| 20260510023054 | 18 | 360 | 1.6 | 0.0 | 0.00 | 0.00 | 0.00 | 54 | 1010.5 |
| 20260510021555 | 18 | 278 | 1.6 | 0.0 | 0.00 | 0.00 | 0.00 | 54 | 1010.5 |
| 20260510020054 | 19 | 282 | 0.0 | 0.0 | 0.00 | 0.00 | 0.00 | 55 | 1010.1 |
| 20260510013101 | 20 | 280 | 0.0 | 0.0 | 0.00 | 0.00 | 0.00 | 52 | 1009.6 |
| 20260510011548 | 21 | 282 | 0.0 | 0.0 | 0.00 | 0.00 | 0.00 | 52 | 1009.4 |
| 20260510010048 | 21 | 282 | 1.6 | 0.0 | 0.00 | 0.00 | 0.00 | 49 | 1009.2 |
| 20260510003050 | 22 | 360 | 0.0 | 0.0 | 0.00 | 0.00 | 0.00 | 45 | 1009.0 |
| 20260510001548 | 23 | 283 | 0.0 | 0.0 | 0.00 | 0.00 | 0.00 | 44 | 1009.0 |
| 20260510000047 | 23 | 279 | 0.0 | 0.0 | 0.00 | 0.00 | 0.00 | 41 | 1009.1 |
| 20260509233048 | 24 | 360 | 1.6 | 0.0 | 0.00 | 0.00 | 0.00 | 37 | 1009.0 |
| 20260509231556 | 25 | 173 | 1.6 | 0.0 | 0.00 | 0.00 | 0.00 | 37 | 1009.1 |
| 20260509230047 | 25 | 142 | 3.2 | 0.0 | 0.00 | 0.00 | 0.00 | 37 | 1009.0 |
| 20260509223047 | 25 | 280 | 3.2 | 0.0 | 0.00 | 0.00 | 0.00 | 35 | 1009.1 |
| 20260509221546 | 25 | 13 | 3.2 | 0.0 | 0.00 | 0.00 | 0.00 | 36 | 1009.0 |
| 20260509220052 | 25 | 349 | 1.6 | 0.0 | 0.00 | 0.00 | 0.00 | 38 | 1009.0 |
| 20260509213044 | 25 | 261 | 4.8 | 0.0 | 0.00 | 0.00 | 0.00 | 35 | 1008.9 |
| 20260509211548 | 25 | 291 | 3.2 | 0.0 | 0.00 | 0.00 | 0.00 | 34 | 1009.1 |
| 20260509210047 | 26 | 338 | 8.0 | 0.0 | 0.00 | 0.00 | 0.00 | 37 | 1009.3 |
| 20260509203042 | 26 | 9 | 8.0 | 0.0 | 0.00 | 0.00 | 0.00 | 34 | 1009.4 |
| 20260509201542 | 27 | 5 | 4.8 | 0.0 | 0.00 | 0.00 | 0.00 | 32 | 1009.7 |
| 20260509200044 | 28 | 190 | 4.8 | 0.0 | 0.00 | 0.00 | 0.00 | 35 | 1009.8 |
| 20260509193041 | 30 | 348 | 6.4 | 0.0 | 0.00 | 0.00 | 0.00 | 30 | 1010.0 |
| 20260509191542 | 30 | 333 | 4.8 | 0.0 | 0.00 | 0.00 | 0.00 | 33 | 1010.0 |
| 20260509190042 | 29 | 347 | 4.8 | 0.0 | 0.00 | 0.00 | 0.00 | 36 | 1010.0 |
| 20260509183035 | 28 | 298 | 8.0 | 0.0 | 0.00 | 0.00 | 0.00 | 32 | 1009.9 |
| 20260509181536 | 29 | 315 | 3.2 | 0.0 | 0.00 | 0.00 | 0.00 | 35 | 1009.9 |
| 20260509180032 | 28 | 232 | 6.4 | 0.0 | 0.00 | 0.00 | 0.00 | 34 | 1010.1 |
| 20260509173031 | 28 | 125 | 8.0 | 0.0 | 0.00 | 0.00 | 0.00 | 33 | 1010.4 |
| 20260509171527 | 28 | 360 | 8.0 | 0.0 | 0.00 | 0.00 | 0.00 | 39 | 1010.6 |
| 20260509170024 | 27 | 236 | 6.4 | 0.0 | 0.00 | 0.00 | 0.00 | 40 | 1010.5 |